Wetbulb
52.59 53.69 54.38 54.36 54.09 53.11 52.92 52.82 53.07 53.07 53.07 53.16 53.21 53.14 52.99 53.00 53.51 48.88 45.85 46.81 42.18 38.73 40.07 43.31 44.05 40.05 40.80 39.12 34.33 38.01 37.33 40.53 40.08 35.59 38.40 38.89 38.77 42.50 42.46 44.53 44.22 39.72 39.71 40.71 40.69 40.00 40.67 52.61 53.47 52.83 54.94 57.56 60.87 61.52
51.82 53.67 53.95 54.05 53.87 53.03 52.82 52.84 52.78 53.05 53.03 53.10 53.25 53.34 53.15 53.06 53.40 52.14 42.73 46.47 46.70 43.05 40.70 44.96 46.44 47.49 46.25 45.65 40.40 38.98 36.43 36.54 41.69 40.09 41.76 39.97 41.21 43.42 41.88 40.49 46.39 42.80 44.72 43.77 45.67 45.01 50.83 52.44 52.05 56.00 58.52 58.33 60.04 61.99
51.68 53.45 53.16 53.52 53.67 52.80 52.59 52.65 52.69 52.80 52.84 52.91 53.10 53.27 53.21 53.65 53.71 52.17 46.49 45.53 43.84 39.47 40.32 39.32 40.41 45.74 47.43 47.80 48.26 38.43 38.82 40.30 42.19 42.80 39.87 41.39 37.14 41.86 40.47 43.21 43.66 46.58 48.60 46.54 46.77 49.36 51.01 52.83 55.38 57.41 58.60 58.63 61.16 61.21
51.60 52.56 52.91 53.45 53.20 52.61 52.53 52.59 52.57 52.74 52.92 52.97 52.91 53.08 53.08 53.22 53.79 52.84 46.18 47.16 43.96 44.82 37.96 37.07 45.70 43.04 46.75 45.90 46.60 45.68 44.87 43.69 44.32 43.21 38.19 36.97 36.25 40.07 38.43 39.99 41.59 46.56 49.17 46.99 45.70 49.75 52.16 54.18 54.69 57.33 59.67 61.46 61.79 62.80
51.38 51.98 52.73 52.75 53.26 52.47 52.45 52.80 52.57 52.73 52.73 52.98 53.13 53.25 53.57 53.58 53.73 52.79 50.97 48.75 47.34 42.28 35.86 36.56 42.20 45.26 46.44 46.09 45.78 46.02 43.00 42.64 41.74 40.38 36.36 37.75 38.82 39.90 40.81 41.48 40.94 48.33 48.59 47.03 48.19 54.75 50.33 53.58 56.03 60.01 60.82 62.27 63.16 62.79
51.70 51.70 52.72 52.71 53.24 52.49 52.57 52.69 52.61 52.74 52.82 53.03 53.25 53.21 53.38 53.58 53.46 48.54 45.22 48.17 49.39 48.25 42.06 37.75 40.87 41.66 44.56 45.16 44.47 43.56 43.22 42.46 42.85 39.75 37.12 39.19 40.53 38.85 36.03 38.64 46.09 50.62 50.07 48.77 50.69 53.95 57.34 59.23 56.13 59.81 58.78 61.17 60.24 62.38
51.78 51.66 52.47 52.21 53.10 52.39 52.37 52.39 52.63 52.69 52.61 53.23 53.42 53.44 53.45 53.17 50.42 44.92 44.31 48.24 50.51 48.98 42.60 37.70 34.97 40.93 46.24 45.33 45.21 41.61 43.34 43.61 45.31 43.84 41.97 40.49 40.56 41.99 38.08 35.65 41.72 46.46 47.78 47.61 50.58 51.43 57.73 58.73 55.55 58.35 58.08 62.85 61.60 63.46
51.92 52.27 52.30 51.97 52.61 52.33 52.33 52.47 52.61 52.45 52.78 53.13 53.28 53.49 53.21 52.91 51.83 47.71 49.18 50.56 49.97 46.52 42.67 35.83 36.18 37.75 47.48 45.30 42.01 46.67 43.30 44.04 44.41 43.05 43.83 40.17 40.54 39.39 35.87 39.59 42.74 45.48 47.06 49.79 52.41 60.09 60.84 62.17 62.67 62.59 64.78 63.92 59.79 62.09
52.25 52.50 51.84 51.78 52.68 52.32 52.39 52.54 52.41 52.76 53.14 53.12 53.12 53.08 50.30 48.74 45.05 44.59 53.93 53.19 50.15 46.29 39.80 38.11 34.46 33.45 46.79 44.71 45.69 43.65 45.48 39.31 43.40 39.12 38.43 41.36 38.14 36.14 39.06 41.14 44.20 48.01 47.47 51.56 55.23 59.09 61.52 61.07 61.64 62.62 63.14 63.04 61.54 61.30
52.22 52.08 51.63 51.92 52.31 51.86 52.53 52.78 52.67 52.80 52.43 52.38 48.43 44.77 42.44 47.96 53.81 52.88 47.98 44.47 44.16 44.53 43.47 38.08 41.84 37.14 42.58 43.16 43.53 41.91 44.48 41.06 37.37 39.49 42.30 39.17 37.53 42.51 43.79 45.36 46.69 48.25 49.30 49.16 49.51 53.06 59.17 59.22 60.37 61.01 61.89 63.60 62.60 63.37
51.96 52.18 51.67 51.90 52.02 52.33 52.64 52.48 52.54 52.23 51.64 47.39 44.24 43.02 47.86 52.14 49.74 46.56 40.72 40.54 41.33 38.52 40.61 40.26 40.71 38.09 44.98 38.87 40.14 43.26 41.08 40.85 35.29 40.47 38.41 38.62 36.92 41.17 45.48 45.66 47.55 48.30 49.03 49.73 51.30 54.24 60.39 59.96 60.70 61.13 61.78 63.32 64.01 63.90
52.25 52.06 51.65 51.59 51.84 52.25 52.37 52.30 52.27 49.30 44.15 43.44 43.34 46.87 48.24 45.02 43.15 40.18 37.90 39.99 39.69 38.39 41.09 40.77 41.87 42.04 43.91 46.94 44.28 44.05 41.04 42.98 39.01 43.10 40.92 38.38 44.76 46.86 46.42 46.42 47.60 49.17 50.42 51.16 53.99 61.96 66.39 66.13 64.08 65.74 63.37 65.02 63.77 63.56
51.80 51.56 51.37 51.54 52.16 52.17 52.39 52.52 52.51 51.86 49.43 47.60 44.96 41.89 41.43 40.22 35.46 34.56 33.54 36.84 40.65 45.33 44.58 45.64 43.95 45.24 45.18 47.26 44.51 43.32 41.10 40.61 47.10 42.62 41.84 45.18 49.47 48.10 48.51 48.94 49.47 51.08 52.88 55.42 58.92 66.75 66.94 66.83 69.76 69.02 65.86 67.32 66.62 64.07
51.54 51.42 51.36 51.80 52.03 52.09 52.33 52.50 52.88 50.49 44.21 42.27 40.97 33.51 37.62 37.64 38.07 37.78 40.40 40.89 46.07 46.98 46.96 46.47 45.74 44.65 46.20 43.44 43.67 40.00 43.31 44.32 42.03 40.34 41.83 47.73 51.36 54.22 50.96 52.57 53.05 53.28 55.79 61.41 64.57 66.44 66.55 67.37 69.14 70.55 70.37 69.20 67.31 68.03
50.99 51.02 51.59 51.35 51.85 52.08 52.04 52.77 52.42 49.55 44.37 40.84 40.75 33.54 36.99 40.65 41.59 42.92 47.38 45.72 46.85 46.97 48.07 47.06 47.30 46.12 43.79 42.24 43.42 42.33 40.83 40.62 42.56 41.66 44.34 51.46 52.49 54.45 55.36 57.51 56.71 60.65 62.16 62.08 63.34 65.44 66.24 67.34 68.68 68.34 69.49 70.09 71.14 71.55
50.92 51.40 51.40 52.06 52.22 52.39 52.82 51.48 49.82 48.54 45.22 42.17 41.07 37.22 39.73 39.02 39.96 41.16 42.29 42.81 44.52 44.37 44.53 47.42 45.40 43.63 41.68 42.60 40.82 39.85 41.04 41.42 44.40 46.32 52.02 53.26 53.14 54.75 55.25 57.12 59.30 60.97 61.09 62.33 63.10 64.64 66.72 66.59 66.64 66.61 68.21 69.11 69.86 71.34
50.85 47.82 51.65 51.68 51.54 51.31 51.06 47.78 47.66 44.29 42.22 40.03 38.19 41.52 40.13 39.64 39.41 41.81 43.05 41.98 44.06 42.54 42.48 44.86 41.48 41.96 45.93 41.73 41.12 44.31 42.58 44.34 47.80 51.15 53.54 54.83 55.27 53.72 54.61 55.84 58.52 60.03 60.49 61.36 62.22 64.16 64.18 65.44 66.32 65.92 66.12 66.93 68.94 69.58
46.94 50.29 52.06 51.88 50.44 48.76 48.74 47.82 45.02 42.41 39.31 40.67 38.16 40.70 42.66 42.92 42.59 43.63 44.97 45.33 43.26 40.88 41.44 41.01 43.78 43.03 41.98 40.40 43.16 46.88 46.86 49.75 52.49 53.96 54.32 54.35 55.44 54.94 55.36 55.10 56.90 59.82 62.04 61.71 61.87 62.26 62.46 63.09 62.86 62.65 64.01 65.60 67.64 68.21
49.61 49.92 50.99 51.40 48.52 46.00 45.05 45.03 44.85 39.16 40.70 42.54 43.56 43.71 44.64 44.73 45.53 46.15 45.77 46.07 45.93 44.80 42.72 41.90 42.04 40.83 44.83 47.53 47.66 50.20 50.81 50.77 50.30 51.79 53.60 54.06 54.54 55.02 56.12 56.77 58.15 60.70 60.42 60.30 60.58 61.76 62.03 61.56 62.23 63.49 65.02 66.45 66.35 66.85
50.79 50.91 51.05 51.20 50.67 45.99 43.90 44.08 45.55 41.46 39.88 43.27 44.18 43.08 43.44 43.19 45.00 45.47 45.29 45.33 45.15 44.31 42.97 42.20 41.63 44.88 46.83 48.59 50.74 52.40 52.12 51.95 51.66 51.08 51.67 53.39 55.24 54.78 55.04 56.14 56.74 59.03 60.26 60.26 60.14 56.20 61.14 61.98 61.86 62.47 62.59 64.16 65.68 65.47
50.00 51.16 52.47 50.64 48.13 46.84 45.34 44.49 43.53 43.35 43.52 42.93 44.58 43.64 42.99 44.82 43.62 43.90 44.19 46.14 43.47 42.48 42.28 42.74 43.42 44.91 47.13 50.01 51.80 51.92 53.30 52.59 51.57 52.13 51.75 51.24 54.06 55.36 54.83 55.60 56.57 56.18 57.21 57.42 57.40 57.92 57.42 60.06 61.70 62.19 62.92 63.43 64.89 66.01
48.52 51.51 49.48 49.89 46.95 46.79 44.56 46.03 43.80 45.13 44.43 43.35 43.44 44.31 42.70 42.65 43.86 44.24 45.33 42.35 42.05 43.32 44.44 44.99 46.09 45.52 45.37 45.60 47.58 50.35 52.16 54.14 53.17 52.50 51.31 52.87 53.43 54.04 52.24 52.53 52.59 51.47 52.52 55.48 55.80 56.58 57.60 58.53 60.06 61.93 61.25 62.12 62.36 62.39
49.25 49.49 46.53 47.69 44.87 41.59 40.24 47.75 43.62 44.10 40.92 42.09 44.57 42.86 43.32 44.13 45.41 45.92 42.30 43.63 44.46 47.12 47.60 47.66 48.24 48.79 48.26 49.19 48.75 49.84 52.17 52.61 53.65 54.23 54.64 54.97 54.56 54.75 51.90 52.09 51.16 50.70 52.87 53.85 56.18 58.06 57.60 54.07 56.77 59.88 60.17 61.02 63.09 62.68
50.36 46.87 45.12 44.14 43.35 39.93 45.93 44.09 45.03 43.41 43.48 42.86 42.66 42.55 45.17 45.20 45.22 43.64 42.41 44.72 47.62 49.64 48.83 49.13 49.61 48.99 50.06 50.03 49.02 49.39 51.71 52.45 54.41 55.13 55.50 54.13 52.38 52.74 52.70 51.52 51.78 51.33 51.90 54.94 57.21 58.72 58.67 58.25 54.69 58.38 58.84 59.02 59.51 59.22
40.37 40.40 41.87 36.64 44.67 44.18 43.35 43.56 43.98 43.78 42.41 43.88 43.93 45.18 45.48 45.78 43.70 43.24 43.02 45.12 47.60 48.88 49.86 51.09 51.46 51.21 50.16 50.40 51.34 50.95 52.62 52.15 53.01 53.31 53.81 53.11 52.11 52.20 50.01 52.38 54.83 53.44 52.05 56.33 57.63 57.27 57.08 56.58 56.58 56.98 56.78 57.02 57.50 56.40
36.00 43.55 39.85 44.61 45.01 43.59 44.03 42.05 43.55 43.86 44.21 44.91 46.34 47.84 48.04 44.67 41.71 40.76 43.57 46.72 48.14 49.01 50.48 51.21 50.52 49.94 49.39 50.67 49.46 48.97 50.89 52.57 53.81 52.58 53.28 52.42 51.98 48.94 50.67 54.26 54.76 55.23 57.64 57.21 57.16 57.11 56.04 55.80 56.14 55.54 55.01 54.23 49.51 55.41
38.17 42.36 45.85 49.28 47.17 45.92 44.42 45.31 46.14 44.53 43.61 45.06 45.86 45.42 43.15 39.62 38.68 43.87 48.13 49.61 49.67 51.70 53.24 53.44 52.71 51.79 50.55 50.13 50.87 51.46 51.81 52.31 52.69 53.34 56.50 57.37 57.34 56.91 56.20 54.27 53.13 53.56 55.70 57.03 56.84 56.41 55.28 54.46 53.79 53.95 53.78 53.65 53.95 54.43
45.33 46.72 42.90 45.75 44.88 45.91 43.83 44.70 44.85 45.38 46.12 47.80 46.73 43.29 41.54 42.16 42.12 46.99 48.97 51.25 52.31 53.21 53.69 54.59 54.39 54.37 53.45 52.54 53.31 53.21 54.91 55.60 56.99 56.76 56.51 55.69 55.45 55.92 55.74 54.97 53.23 47.71 53.37 54.97 55.23 55.01 54.27 53.66 53.54 52.98 52.32 51.66 51.41 52.20
44.68 47.35 46.23 43.93 45.10 45.31 46.49 47.04 48.42 48.62 50.61 48.74 45.23 44.19 45.35 48.18 50.53 50.19 51.22 52.40 52.20 52.12 52.49 52.32 53.59 55.56 55.74 56.22 55.48 56.18 56.04 55.30 53.41 53.46 51.66 50.10 50.05 51.68 53.66 54.03 54.28 54.53 53.70 53.02 45.42 50.31 53.36 53.44 53.22 52.76 52.22 51.80 51.62 51.90
46.31 48.10 45.73 47.05 47.50 47.44 50.18 52.34 51.75 53.05 53.42 52.45 52.35 50.87 50.74 52.10 54.53 55.79 53.64 52.53 51.56 50.43 53.11 54.22 55.07 51.65 52.75 52.88 52.25 53.58 55.56 55.67 54.48 53.96 50.84 48.92 49.61 51.60 52.56 52.73 53.53 55.40 55.57 54.64 53.00 51.20 46.99 51.35 49.10 51.80 52.38 51.53 50.56 49.79
50.43 48.88 49.55 49.46 48.99 50.96 52.77 54.53 55.23 54.77 54.63 52.72 52.16 50.53 51.12 52.41 54.94 54.94 53.39 53.61 53.36 52.40 52.19 52.80 52.89 51.92 52.45 52.07 52.41 51.44 52.14 53.60 52.74 53.19 53.08 52.65 52.58 51.96 51.10 51.31 53.49 53.99 53.66 53.92 53.51 52.95 53.18 52.98 53.53 52.55 51.44 50.97 50.93 50.28
50.64 49.71 49.07 48.56 49.67 53.03 53.27 52.63 52.36 51.70 50.93 49.79 49.51 51.93 51.59 50.30 49.10 51.18 52.37 51.10 51.34 51.00 49.72 51.16 51.92 52.18 53.58 53.84 53.40 53.94 49.23 53.49 53.33 53.97 54.42 53.24 53.03 54.17 53.58 53.50 53.59 53.41 53.12 53.21 52.58 51.94 52.83 53.41 53.57 53.11 51.40 51.05 51.13 51.01
51.27 51.61 51.50 50.39 50.01 50.25 51.57 51.53 50.06 48.89 49.73 49.07 49.48 51.50 51.90 50.09 50.00 53.02 55.81 51.30 51.61 52.35 50.88 50.64 51.26 51.08 51.38 51.63 51.82 51.09 49.41 53.07 50.17 45.62 45.41 47.06 47.46 49.13 52.69 53.72 54.01 53.99 53.40 52.79 53.25 53.34 52.71 53.34 53.08 53.08 52.70 52.43 52.22 51.60
MSLP
1022.34 1021.94 1021.57 1021.36 1021.26 1021.26 1021.14 1020.94 1020.78 1020.59 1020.41 1020.26 1020.09 1019.98 1019.87 1019.72 1019.59 1019.61 1019.55 1018.92 1019.45 1018.89 1017.58 1016.87 1016.79 1016.82 1016.70 1016.92 1016.99 1016.17 1015.53 1015.10 1015.13 1015.00 1014.67 1013.38 1011.79 1009.73 1008.74 1007.44 1006.52 1005.81 1005.12 1004.50 1003.47 1002.28 1000.39 997.47 997.29 997.03 996.74 996.44 996.20 996.65
1022.03 1021.45 1021.16 1020.98 1020.87 1020.89 1020.85 1020.80 1020.57 1020.32 1020.28 1020.07 1019.88 1019.73 1019.64 1019.56 1019.49 1019.47 1019.67 1018.87 1018.88 1018.97 1017.42 1016.44 1015.99 1015.90 1016.05 1016.18 1016.70 1016.34 1016.20 1016.13 1016.09 1016.36 1016.04 1015.22 1013.77 1011.31 1009.79 1008.30 1006.76 1006.07 1004.23 1003.47 1002.42 1000.72 998.84 997.86 997.44 996.07 995.53 995.73 995.53 995.89
1021.77 1021.22 1020.92 1020.65 1020.50 1020.48 1020.40 1020.37 1020.31 1020.15 1019.88 1019.80 1019.61 1019.40 1019.35 1019.29 1019.27 1019.27 1019.50 1019.23 1019.08 1018.83 1017.07 1015.90 1014.91 1014.55 1014.73 1014.97 1015.13 1016.06 1015.91 1015.64 1016.22 1016.39 1016.87 1016.47 1015.66 1014.03 1011.91 1009.87 1008.33 1006.14 1004.53 1003.20 1002.19 1000.20 998.45 997.71 996.92 995.95 995.08 994.91 994.89 995.09
1021.33 1020.84 1020.54 1020.32 1020.19 1020.16 1020.03 1019.88 1019.76 1019.75 1019.65 1019.50 1019.26 1019.00 1018.99 1018.88 1018.91 1018.77 1019.15 1018.90 1019.24 1019.01 1018.16 1015.70 1014.34 1014.22 1013.95 1014.20 1014.44 1014.68 1014.97 1015.39 1016.08 1016.68 1017.14 1016.96 1016.45 1015.08 1013.56 1011.92 1010.46 1008.45 1006.45 1004.07 1002.07 1000.42 998.86 996.79 997.08 996.33 995.20 995.03 994.38 994.69
1020.98 1020.56 1020.19 1019.94 1019.56 1019.35 1019.44 1019.38 1019.26 1019.12 1019.17 1019.07 1018.91 1018.68 1018.59 1018.42 1018.35 1018.32 1018.19 1017.79 1018.14 1018.71 1017.78 1016.14 1014.86 1013.37 1013.01 1013.34 1013.45 1013.79 1014.34 1014.82 1015.91 1016.89 1017.17 1017.01 1016.27 1015.64 1014.20 1012.55 1009.68 1007.84 1006.07 1005.08 1002.99 1000.93 999.57 996.64 996.48 996.12 995.94 995.32 995.34 995.14
1020.51 1020.11 1019.70 1019.66 1019.40 1019.30 1019.02 1019.04 1018.71 1018.62 1018.59 1018.51 1018.38 1018.27 1018.14 1017.99 1017.97 1018.24 1017.59 1017.08 1016.89 1017.43 1017.68 1016.36 1014.71 1013.24 1012.55 1012.77 1012.79 1012.91 1013.28 1013.93 1014.59 1015.46 1016.25 1015.98 1015.40 1015.28 1014.43 1011.57 1007.63 1006.50 1005.59 1005.69 1004.41 1001.81 1000.04 997.10 995.56 995.27 995.64 995.02 993.98 994.33
1020.08 1019.84 1019.38 1019.21 1019.13 1018.86 1018.72 1018.63 1018.35 1018.13 1017.92 1017.81 1017.78 1017.69 1017.58 1017.51 1017.78 1017.75 1017.01 1016.88 1016.81 1017.01 1017.29 1016.57 1014.90 1013.27 1012.37 1012.14 1011.91 1012.09 1012.25 1012.82 1013.48 1014.35 1014.79 1015.04 1014.92 1014.55 1013.60 1010.94 1005.73 1006.62 1005.59 1004.59 1003.42 1002.30 998.87 996.59 995.47 994.69 994.87 995.10 994.28 994.60
1019.51 1019.11 1019.00 1018.75 1018.65 1018.50 1018.35 1018.14 1017.92 1017.62 1017.31 1017.18 1017.11 1017.02 1016.92 1016.89 1016.94 1016.70 1015.92 1015.99 1016.63 1017.08 1017.20 1016.79 1015.17 1013.89 1012.45 1011.92 1011.64 1011.49 1012.05 1012.55 1013.00 1013.48 1013.57 1013.79 1014.15 1013.71 1011.71 1007.81 1007.53 1006.74 1005.96 1004.81 1003.34 1001.48 999.66 997.20 995.10 994.81 994.03 994.46 994.84 995.53
1019.19 1018.65 1018.54 1018.40 1018.12 1018.08 1017.91 1017.68 1017.45 1017.11 1016.83 1016.56 1016.49 1016.31 1016.50 1016.55 1016.37 1015.33 1014.46 1014.72 1015.78 1016.66 1016.33 1015.89 1015.09 1013.95 1012.66 1012.12 1011.49 1011.46 1011.44 1012.13 1011.99 1011.97 1012.16 1012.63 1012.12 1010.67 1007.82 1006.90 1006.82 1005.46 1005.14 1003.62 1002.82 1001.09 999.30 997.47 996.05 995.83 994.96 994.73 994.78 994.84
1018.76 1018.37 1018.13 1017.95 1017.78 1017.70 1017.51 1017.33 1017.04 1016.65 1016.24 1015.98 1016.16 1016.31 1015.96 1015.58 1015.21 1015.08 1014.90 1015.33 1015.75 1015.73 1015.61 1014.35 1013.76 1013.27 1012.96 1012.29 1011.33 1011.28 1010.96 1011.01 1010.57 1010.43 1010.68 1010.44 1008.15 1006.53 1005.87 1005.37 1004.88 1003.83 1003.55 1003.26 1003.07 1001.33 999.11 997.82 996.56 996.01 995.38 995.01 995.25 995.04
1018.18 1017.87 1017.65 1017.54 1017.43 1017.30 1017.14 1016.96 1016.72 1016.42 1015.53 1015.83 1015.99 1015.95 1015.68 1015.19 1015.21 1014.87 1014.64 1014.78 1014.62 1014.34 1013.83 1012.85 1012.43 1012.05 1012.12 1011.94 1011.06 1010.84 1009.89 1009.48 1008.80 1007.86 1008.06 1006.95 1004.71 1003.46 1003.51 1003.99 1002.84 1002.33 1002.40 1001.83 1001.81 1001.15 999.49 998.01 997.13 996.25 995.54 995.18 994.73 995.08
1017.47 1017.33 1017.21 1017.13 1017.05 1016.99 1016.84 1016.66 1016.57 1016.42 1016.22 1016.34 1016.41 1015.91 1015.62 1015.24 1014.80 1014.23 1013.43 1013.10 1012.89 1012.00 1011.54 1011.13 1010.77 1011.02 1010.86 1010.24 1009.30 1009.07 1008.09 1006.97 1005.22 1005.39 1005.42 1003.01 999.84 998.79 1000.11 1000.71 1000.44 1000.74 1000.75 1000.54 1000.52 999.52 997.99 997.08 996.36 995.80 995.53 995.46 995.44 995.16
1017.16 1016.99 1016.82 1016.74 1016.68 1016.63 1016.48 1016.38 1016.31 1016.29 1016.21 1016.10 1016.16 1015.78 1015.29 1014.94 1013.97 1013.13 1011.99 1010.97 1010.43 1009.59 1009.28 1009.26 1009.52 1009.62 1009.84 1009.10 1008.32 1007.76 1006.54 1004.56 1003.14 1003.49 1001.90 998.68 996.83 996.47 997.62 998.40 998.75 998.89 999.40 999.45 998.97 998.01 997.28 996.51 995.75 995.15 995.05 994.89 994.96 995.36
1016.76 1016.56 1016.41 1016.24 1016.20 1016.10 1016.02 1016.04 1016.00 1016.14 1016.27 1016.11 1015.50 1015.21 1014.50 1013.23 1012.12 1010.95 1010.26 1009.60 1009.11 1007.98 1007.77 1007.96 1008.47 1008.79 1008.52 1008.34 1007.48 1006.82 1005.21 1003.89 1002.46 1001.24 1000.14 998.81 997.51 997.13 997.21 997.12 997.44 997.81 998.15 998.14 997.82 997.31 996.68 996.28 995.59 995.30 995.10 994.61 994.65 994.83
1016.31 1016.07 1015.79 1015.48 1015.35 1015.44 1015.52 1015.48 1015.76 1015.96 1016.14 1015.76 1015.24 1014.40 1013.08 1011.92 1010.99 1010.55 1009.89 1009.30 1008.80 1008.26 1008.14 1007.76 1007.42 1007.84 1007.81 1007.53 1006.88 1006.01 1004.86 1003.36 1001.74 1000.98 1000.13 999.54 998.98 998.28 997.95 997.54 997.40 997.36 997.27 997.27 997.24 996.96 996.42 996.09 995.72 995.71 995.43 994.85 994.21 993.99
1015.99 1015.51 1015.04 1014.77 1014.71 1014.99 1015.13 1015.47 1015.72 1015.77 1015.48 1015.15 1014.34 1013.47 1012.49 1011.92 1010.89 1010.45 1010.03 1009.42 1008.98 1008.36 1007.47 1007.01 1006.79 1006.87 1006.71 1006.51 1006.04 1005.26 1004.28 1002.85 1002.00 1001.62 1000.58 999.99 999.36 998.83 998.51 998.22 997.97 997.77 997.59 997.21 996.95 996.75 996.34 996.09 995.93 995.80 995.23 994.92 994.73 994.38
1015.81 1015.51 1015.14 1015.06 1015.04 1014.95 1014.94 1015.47 1015.29 1014.94 1014.65 1014.13 1013.14 1012.63 1012.35 1011.95 1011.16 1010.41 1009.89 1009.47 1009.22 1008.89 1007.99 1006.98 1006.67 1005.85 1005.50 1005.44 1004.85 1004.52 1004.20 1003.46 1002.42 1001.54 1001.25 1000.71 1000.21 999.91 999.01 998.56 998.24 997.80 997.68 997.45 997.20 996.93 996.73 996.56 996.27 996.34 995.92 995.58 995.24 994.92
1015.68 1015.07 1015.05 1015.06 1015.08 1014.78 1014.58 1014.75 1014.72 1014.36 1013.60 1012.86 1012.56 1011.64 1011.38 1011.01 1010.43 1009.90 1009.45 1009.33 1009.46 1009.27 1008.65 1007.79 1007.11 1005.89 1004.94 1004.79 1003.86 1003.46 1003.41 1002.82 1002.09 1001.37 1001.26 1001.20 1000.67 1000.18 999.02 998.62 998.44 998.15 997.84 997.74 997.79 997.54 997.48 997.31 997.14 997.27 996.74 996.08 995.59 995.81
1015.33 1015.19 1015.05 1015.11 1015.28 1015.29 1014.75 1014.29 1014.28 1013.62 1012.48 1011.99 1011.31 1010.88 1010.51 1010.02 1009.50 1009.34 1009.20 1009.09 1009.09 1009.10 1008.84 1007.71 1006.57 1005.39 1004.88 1004.55 1003.99 1003.29 1003.01 1002.92 1002.22 1001.62 1001.45 1001.52 1000.89 1000.02 999.35 998.88 998.52 998.13 998.08 998.57 998.57 998.39 998.25 998.05 998.01 997.80 997.39 996.57 996.17 996.64
1014.80 1014.56 1014.28 1014.66 1014.96 1014.84 1014.24 1013.70 1013.67 1013.09 1012.09 1011.18 1010.67 1010.30 1009.94 1009.57 1009.17 1008.96 1008.79 1008.72 1008.65 1008.45 1008.04 1007.18 1006.02 1005.47 1005.05 1004.67 1004.26 1003.69 1003.44 1003.31 1002.70 1002.17 1001.77 1001.60 1000.83 1000.69 1000.28 999.68 999.83 998.95 998.93 999.32 999.30 999.11 998.85 998.58 998.17 997.88 997.26 997.02 997.14 997.41
1014.26 1013.69 1013.37 1013.98 1014.41 1014.33 1013.91 1013.08 1012.78 1012.13 1011.39 1010.78 1010.25 1010.01 1009.45 1009.12 1008.84 1008.64 1008.45 1008.31 1008.34 1007.87 1007.13 1006.18 1005.83 1005.50 1005.09 1004.75 1004.31 1004.16 1003.84 1003.40 1003.41 1003.21 1002.91 1002.96 1002.33 1001.80 1001.95 1001.65 1000.42 999.70 999.76 1000.15 1000.11 1000.21 999.76 999.51 998.92 998.31 998.03 997.86 998.08 998.29
1014.04 1013.51 1013.44 1013.55 1013.58 1013.41 1013.19 1012.61 1012.23 1011.51 1011.05 1010.25 1009.97 1009.53 1009.05 1008.61 1008.32 1008.21 1008.16 1008.13 1007.63 1006.77 1006.30 1005.70 1005.32 1005.26 1005.00 1004.71 1004.39 1004.23 1004.00 1003.44 1002.99 1002.92 1002.51 1002.66 1002.81 1002.51 1001.16 999.98 999.99 1000.31 1000.52 1000.94 1000.85 1000.61 1000.39 1000.19 999.51 999.11 999.03 998.94 998.58 999.09
1014.02 1013.62 1013.42 1013.03 1013.07 1012.89 1012.32 1011.76 1011.46 1010.81 1010.39 1009.73 1009.25 1008.85 1008.41 1008.12 1008.03 1008.15 1007.94 1007.42 1006.72 1005.94 1005.66 1005.51 1005.16 1004.94 1004.76 1004.31 1003.85 1003.82 1003.72 1003.51 1003.16 1002.70 1002.43 1002.15 1001.57 1000.95 1000.41 999.92 1000.19 1000.77 1000.82 1000.44 1000.40 1000.59 1000.63 1000.54 1000.31 1000.03 999.84 999.74 999.67 1000.08
1013.50 1013.52 1012.86 1012.51 1012.48 1012.03 1011.52 1010.96 1010.62 1010.20 1009.67 1009.10 1008.54 1007.99 1007.71 1007.71 1007.90 1007.83 1007.41 1006.80 1005.82 1005.26 1005.11 1004.79 1004.56 1004.39 1004.28 1004.22 1003.88 1003.41 1003.22 1003.15 1003.00 1002.98 1002.51 1002.51 1002.00 1001.20 1000.82 1000.30 1000.15 1000.15 1000.43 1000.92 1001.14 1001.23 1001.15 1001.16 1001.05 1001.05 1001.09 1001.26 1001.29 1001.01
1013.62 1013.02 1012.76 1012.06 1011.70 1011.36 1010.78 1010.21 1009.76 1009.26 1008.64 1008.07 1007.63 1007.09 1007.26 1007.39 1007.38 1007.11 1006.66 1005.96 1005.33 1004.94 1004.56 1004.26 1003.98 1003.84 1003.88 1003.79 1003.64 1003.27 1003.00 1002.96 1003.02 1002.88 1002.32 1002.50 1002.45 1002.04 1001.68 1001.28 1001.03 1000.90 1000.75 1000.86 1001.08 1001.28 1001.63 1001.92 1002.08 1001.98 1001.95 1002.06 1002.11 1002.14
1012.75 1011.95 1011.88 1011.17 1010.92 1010.81 1010.29 1009.90 1009.27 1008.82 1008.18 1007.36 1007.04 1006.85 1006.87 1006.99 1007.12 1006.97 1006.54 1005.75 1005.05 1004.59 1004.25 1003.81 1003.63 1003.60 1003.54 1003.41 1003.39 1003.31 1002.88 1002.42 1002.21 1002.27 1002.04 1001.75 1001.62 1001.74 1002.15 1002.17 1002.21 1002.19 1001.94 1001.87 1002.05 1002.31 1002.51 1002.64 1002.78 1002.97 1003.01 1002.95 1002.91 1002.91
1012.08 1011.28 1010.95 1010.71 1010.60 1010.47 1010.15 1009.59 1009.21 1008.72 1008.18 1007.20 1006.59 1006.55 1006.61 1006.67 1006.70 1006.56 1005.97 1005.04 1004.70 1004.06 1003.64 1003.44 1003.46 1003.27 1003.21 1003.13 1003.13 1003.09 1002.79 1002.52 1002.29 1002.21 1002.22 1001.98 1001.91 1001.96 1002.24 1002.69 1003.01 1003.12 1002.79 1002.64 1002.70 1002.90 1003.31 1003.61 1003.71 1003.75 1003.71 1003.68 1003.77 1003.80
1011.26 1010.69 1010.68 1010.51 1010.38 1010.21 1010.01 1009.41 1008.49 1007.90 1007.22 1006.62 1006.42 1006.47 1006.35 1006.09 1005.94 1005.30 1004.78 1004.32 1004.27 1004.09 1003.77 1003.51 1003.22 1003.08 1003.04 1003.02 1002.89 1002.76 1002.62 1002.53 1002.60 1002.53 1002.43 1002.55 1002.81 1002.99 1003.11 1003.19 1003.22 1003.28 1003.35 1003.35 1003.51 1003.60 1003.79 1003.92 1003.93 1004.04 1004.28 1004.49 1004.64 1004.54
1010.55 1010.20 1010.36 1010.16 1009.79 1009.64 1009.30 1008.85 1008.06 1007.43 1007.01 1006.72 1006.65 1006.22 1006.01 1005.40 1004.70 1004.39 1003.97 1004.02 1004.20 1004.31 1004.11 1003.82 1003.46 1003.10 1003.10 1003.18 1003.21 1003.16 1002.86 1002.62 1002.86 1003.37 1003.71 1004.06 1004.24 1004.30 1003.97 1003.87 1003.70 1003.55 1003.67 1003.83 1004.01 1003.86 1004.00 1004.10 1004.05 1004.28 1004.52 1004.74 1004.94 1005.08
1009.28 1009.51 1009.58 1009.35 1009.17 1008.98 1008.60 1008.19 1007.76 1007.16 1006.63 1006.30 1005.97 1005.79 1005.53 1005.07 1003.98 1003.43 1003.68 1004.03 1004.24 1004.28 1004.04 1003.94 1004.03 1003.98 1004.04 1003.98 1003.99 1003.94 1003.88 1003.57 1003.33 1003.77 1004.24 1004.64 1004.79 1004.65 1004.40 1004.33 1004.27 1004.20 1004.28 1004.52 1004.84 1005.08 1004.98 1004.97 1005.13 1005.07 1005.22 1005.40 1005.44 1005.66
1008.49 1008.72 1008.73 1008.77 1008.61 1008.44 1008.16 1007.76 1007.21 1006.98 1006.62 1006.53 1006.42 1006.16 1005.57 1005.03 1004.03 1003.70 1003.97 1003.95 1004.29 1004.57 1004.40 1004.55 1004.74 1004.82 1004.83 1004.80 1004.74 1004.66 1004.67 1004.73 1004.47 1004.39 1004.52 1004.68 1004.73 1004.80 1004.91 1004.87 1004.69 1004.68 1004.82 1005.00 1005.25 1005.32 1005.31 1005.38 1005.44 1005.57 1005.72 1005.82 1005.95 1006.05
1008.15 1008.19 1008.22 1008.34 1008.31 1008.06 1007.73 1007.52 1007.23 1007.11 1007.03 1006.99 1006.90 1006.17 1005.79 1005.39 1005.08 1004.40 1004.05 1004.14 1004.64 1004.96 1005.16 1005.15 1005.15 1005.46 1005.42 1005.31 1005.19 1005.12 1005.29 1005.40 1005.40 1005.33 1005.16 1005.20 1005.28 1005.11 1004.99 1005.05 1005.03 1005.07 1005.04 1005.02 1005.03 1005.11 1005.20 1005.38 1005.55 1005.88 1006.27 1006.33 1006.46 1006.67
1007.81 1007.68 1007.98 1008.07 1008.05 1007.98 1007.81 1007.69 1007.61 1007.52 1007.35 1007.46 1007.35 1006.89 1006.63 1006.27 1005.61 1004.90 1004.04 1004.04 1004.65 1005.21 1005.62 1005.76 1005.76 1005.75 1005.73 1005.67 1005.61 1005.72 1005.62 1005.61 1005.58 1005.56 1005.53 1005.57 1005.66 1005.70 1005.70 1005.65 1005.53 1005.41 1005.26 1005.11 1005.28 1005.36 1005.48 1005.71 1005.92 1006.09 1006.21 1006.31 1006.51 1006.66
Wind_Speed
19 20 11 12 8 8 9 9 9 10 10 10 10 10 10 9 9 3 5 2 2 3 6 8 4 5 1 2 2 5 6 5 5 1 1 3 3 6 4 4 6 2 2 5 3 3 4 5 5 13 10 4 15 13
18 19 11 13 8 8 9 9 9 9 10 11 10 10 9 8 6 3 2 3 1 3 7 3 11 12 9 10 3 2 3 1 4 0 2 3 4 5 2 6 4 6 8 6 8 8 6 3 5 8 8 8 7 16
18 16 13 13 8 8 9 9 10 11 11 11 11 10 10 9 8 3 3 2 3 2 7 2 8 10 8 13 9 4 2 4 2 3 3 2 5 4 4 3 6 9 4 4 4 8 9 5 4 6 6 6 4 6
17 18 12 12 7 8 9 9 10 12 12 12 11 11 11 10 9 7 2 2 2 3 4 7 3 8 3 2 4 6 11 2 5 3 3 3 2 2 4 5 4 5 13 6 5 8 12 18 5 4 5 6 7 12
18 18 12 12 9 8 10 10 10 11 12 12 12 12 12 11 10 6 4 5 6 4 4 6 11 19 16 11 11 8 7 8 4 3 3 4 3 2 3 3 9 7 6 3 5 12 9 20 10 5 4 2 3 6
16 16 11 12 10 10 10 10 10 11 12 13 13 12 12 10 5 1 3 0 7 6 3 4 5 6 8 8 10 10 7 6 4 6 4 4 4 3 4 6 12 14 7 1 9 23 26 28 8 9 9 9 5 9
16 17 11 11 11 9 10 11 11 12 12 13 13 13 11 11 3 3 3 1 3 1 2 5 5 4 4 5 3 4 8 4 4 3 5 5 4 7 4 11 25 14 18 26 26 23 13 2 6 8 12 17 7 2
16 17 10 11 11 9 10 11 12 13 14 13 13 13 12 11 6 6 8 14 3 0 1 4 6 5 2 3 3 2 3 3 3 6 4 6 4 3 9 18 13 20 24 23 27 15 13 12 10 6 4 10 9 12
16 13 11 11 10 9 10 11 13 14 14 14 13 11 1 2 3 4 2 13 6 3 3 4 3 5 1 3 1 1 3 4 4 7 5 7 6 11 16 15 13 18 11 16 21 23 12 8 7 7 5 6 10 14
16 12 11 11 8 8 10 11 13 14 16 14 1 1 2 3 2 4 1 2 3 4 4 5 4 5 1 1 2 3 3 4 5 6 5 9 15 21 19 14 16 17 17 17 18 21 10 12 7 6 6 3 6 4
17 12 10 11 9 9 9 10 11 13 9 1 1 1 2 3 1 3 4 4 4 4 4 4 9 9 4 6 5 5 3 6 6 7 11 8 11 25 25 23 28 26 23 23 18 25 16 9 7 5 8 5 4 5
15 8 10 10 9 9 9 10 10 5 1 3 3 3 2 1 3 4 4 4 6 5 6 5 5 6 4 6 6 5 5 5 6 12 7 6 10 22 24 29 29 21 23 22 22 19 9 9 8 5 6 5 3 3
8 10 10 9 9 9 10 9 9 8 6 1 1 2 2 4 4 6 5 5 4 5 6 6 4 4 4 3 4 2 5 6 10 5 6 6 5 9 17 16 16 18 19 20 18 9 8 8 4 3 4 6 6 5
11 11 11 10 10 10 10 10 8 5 1 2 3 4 4 5 6 5 4 4 9 5 5 7 3 3 3 3 3 4 5 4 5 3 2 4 7 5 7 12 15 16 11 11 8 7 7 7 3 6 6 4 2 5
12 12 12 13 14 13 11 7 5 2 1 3 2 5 6 6 5 6 3 4 5 6 3 1 2 4 3 4 3 4 4 5 4 2 3 6 7 5 4 2 6 5 6 4 3 4 5 2 4 3 4 5 7 5
11 13 2 5 1 6 5 4 3 3 2 3 5 4 5 7 6 4 5 6 4 8 5 3 3 4 4 3 4 5 4 3 5 3 6 8 11 8 8 8 3 5 5 3 3 2 1 3 2 0 2 6 6 5
8 3 5 7 5 7 10 3 3 4 4 4 5 4 7 8 8 6 2 3 3 5 4 3 2 4 5 3 4 3 3 6 9 8 2 5 9 8 7 7 5 2 4 3 3 4 4 4 6 3 6 4 6 7
3 2 6 4 8 6 1 3 3 4 6 5 4 4 4 5 6 7 3 2 2 3 3 2 3 3 3 3 4 4 5 6 5 3 4 8 9 9 7 7 8 1 9 7 6 6 6 6 6 3 1 1 7 6
5 6 10 6 0 2 3 3 2 4 6 3 4 4 4 4 4 5 4 3 3 3 4 3 5 3 2 2 4 4 3 4 5 3 4 8 9 12 13 11 7 9 12 8 6 6 4 5 3 2 2 2 6 4
14 16 18 10 5 3 3 3 2 3 4 3 2 3 3 3 2 2 3 2 2 2 3 4 2 1 0 3 3 2 3 3 4 4 5 9 11 14 13 10 5 9 9 6 6 6 6 4 4 5 6 7 5 4
6 4 1 7 3 4 3 2 3 3 3 3 2 2 3 2 3 2 2 2 1 3 3 3 2 2 2 3 3 4 3 4 4 3 3 6 9 10 9 12 6 8 8 6 6 5 3 5 5 6 7 6 5 3
3 7 1 3 3 4 3 3 3 3 3 3 2 2 3 2 2 1 1 2 3 3 3 3 2 1 4 5 4 3 4 5 5 1 5 5 3 4 7 1 6 5 5 6 5 2 3 2 5 6 7 5 6 4
8 3 2 3 4 3 5 2 4 3 3 3 2 3 3 2 1 1 2 2 4 4 3 3 4 4 5 7 7 6 4 3 4 5 6 6 7 7 5 5 5 5 3 3 4 4 4 5 6 6 6 6 5 8
6 2 3 2 4 4 3 3 2 3 3 3 3 3 2 0 2 2 3 3 4 3 2 7 5 5 3 4 4 4 4 1 3 3 5 6 8 9 6 3 3 3 2 4 4 4 4 5 6 5 6 6 5 6
2 4 2 4 3 3 3 3 3 3 4 3 3 1 0 1 2 2 3 3 3 4 4 5 5 3 2 2 4 4 5 3 3 4 8 6 6 5 4 5 6 4 4 5 4 5 5 4 4 5 6 6 7 7
3 3 4 3 2 2 3 4 3 4 4 3 1 1 1 2 4 5 3 4 5 4 5 5 2 1 2 3 3 2 3 2 3 2 3 3 2 3 4 5 6 6 6 3 3 4 5 5 6 7 6 7 7 8
3 3 3 2 2 2 3 3 3 2 3 4 2 2 2 2 3 3 5 4 3 3 5 3 2 2 2 2 2 3 4 3 1 1 2 5 7 6 5 5 5 1 3 6 5 5 5 5 5 5 5 6 6 6
4 3 3 1 2 1 2 4 3 1 3 4 3 5 4 2 4 4 5 3 3 4 4 4 3 2 2 3 2 1 3 1 5 6 7 9 7 6 6 4 6 9 5 5 5 5 5 5 6 7 7 6 5 4
4 2 1 2 2 3 2 2 4 2 3 2 3 3 3 3 3 3 3 2 1 3 4 4 4 4 4 4 5 4 4 4 6 6 6 4 4 5 4 4 4 5 5 6 10 7 8 7 7 7 8 7 5 5
4 4 2 2 2 3 2 2 4 4 3 2 2 3 3 3 4 1 2 3 3 4 3 2 3 4 4 4 5 8 8 7 5 4 5 3 3 1 4 5 5 6 5 6 6 5 8 7 5 3 5 4 4 4
2 4 3 2 1 1 3 4 4 3 2 3 3 2 4 3 4 2 2 1 1 3 6 7 6 5 5 5 4 4 6 7 7 8 6 4 4 5 4 3 3 4 4 4 3 3 3 3 3 5 5 5 6 6
3 0 2 2 1 3 4 4 3 3 4 4 5 4 5 6 7 4 2 3 5 5 6 6 6 5 3 3 4 5 6 3 3 4 7 5 5 4 4 4 3 3 3 4 3 4 6 6 6 8 6 8 7 6
3 1 2 1 1 2 3 3 4 5 4 4 2 2 2 2 3 4 4 3 6 6 4 3 3 3 4 5 5 4 4 3 5 7 10 10 9 6 3 3 4 3 2 3 5 6 7 8 7 8 8 7 7 7
Wind_Direction
326 323 305 300 283 291 290 297 305 308 310 315 319 325 331 340 343 30 273 284 118 266 278 265 278 247 300 167 224 296 1 4 18 50 21 288 233 219 227 241 287 222 148 209 113 162 250 251 88 161 209 242 188 213
325 316 303 298 272 285 287 294 298 299 304 307 309 311 312 320 324 10 292 319 5 219 243 287 269 253 229 230 183 285 216 323 185 110 61 322 313 322 125 256 309 253 189 202 173 211 222 357 318 262 172 188 161 185
323 319 309 302 271 284 286 287 293 294 297 300 301 300 301 300 290 259 255 289 11 297 292 266 243 259 224 223 205 189 280 206 128 153 161 212 264 342 288 291 315 336 325 237 33 302 293 316 277 331 165 154 193 189
318 320 306 305 275 286 286 282 286 294 297 296 295 295 296 294 287 277 200 200 120 267 276 281 284 288 276 301 232 205 225 116 119 110 147 201 197 238 277 289 292 253 324 288 254 269 302 281 213 316 315 345 180 189
314 316 298 294 271 272 275 276 284 291 294 294 294 294 291 290 286 278 241 221 194 181 251 286 310 278 262 265 260 241 207 229 157 136 161 196 219 269 274 272 247 208 248 336 274 281 251 265 146 152 85 48 281 182
313 313 295 291 281 280 285 282 285 288 290 292 292 290 288 284 289 347 287 216 207 203 262 288 282 285 276 245 235 239 218 205 163 148 183 218 230 141 270 261 252 267 309 289 297 306 291 265 210 193 162 215 265 127
316 313 294 291 287 284 284 286 287 287 290 290 288 284 277 271 191 191 221 194 358 97 205 291 280 270 253 237 230 193 193 190 161 158 200 165 214 173 236 250 250 283 299 300 302 302 311 242 227 223 152 199 218 108
310 314 291 287 293 286 286 288 288 290 293 294 290 282 271 258 249 248 241 250 195 40 80 260 277 309 342 287 214 153 126 121 189 199 167 183 156 189 250 248 265 256 273 290 285 275 270 275 41 14 119 131 171 159
310 304 299 292 286 280 287 289 292 295 296 294 292 295 275 168 209 246 343 192 170 176 237 213 235 270 107 271 139 62 133 181 216 207 198 158 195 219 230 240 241 247 236 267 305 302 302 332 36 9 44 51 161 176
311 305 297 298 279 285 292 291 295 300 297 300 273 170 230 173 7 339 63 99 161 200 221 247 190 241 60 335 268 170 180 211 203 217 151 224 231 231 228 222 246 246 245 269 286 297 318 322 359 350 357 1 101 168
309 290 286 291 280 283 287 292 302 315 321 59 294 247 277 304 199 218 199 200 177 232 216 236 212 223 194 218 230 195 206 188 220 186 183 217 243 232 225 222 240 241 247 262 259 265 260 265 286 325 320 333 338 114
308 279 283 287 283 287 289 291 300 312 128 214 237 272 270 226 231 258 209 195 206 235 185 211 203 182 221 220 216 193 238 225 248 138 207 240 228 212 197 210 226 228 240 250 253 260 275 283 276 287 266 273 216 214
300 292 285 284 279 279 280 283 279 273 315 265 200 246 205 190 242 214 219 224 211 205 186 187 184 172 212 255 246 238 256 230 122 217 228 250 269 136 164 185 213 219 224 236 246 265 277 279 302 339 252 262 250 199
293 289 286 283 276 271 274 275 271 286 269 243 229 261 230 201 234 201 273 316 289 269 181 162 129 194 209 219 275 257 253 298 273 279 288 308 340 48 174 188 197 212 205 208 220 262 287 272 30 28 13 343 244 256
299 296 286 283 254 249 265 270 201 198 252 255 216 238 237 249 291 296 302 310 328 359 356 200 178 162 200 253 219 274 270 265 257 304 278 332 324 357 7 145 174 161 200 211 230 278 306 269 84 65 5 9 358 306
308 302 288 271 164 205 211 153 190 197 226 240 232 253 259 267 281 326 317 314 341 326 291 231 178 200 186 236 209 233 281 303 330 348 320 342 342 2 11 350 317 182 174 241 272 245 150 55 59 186 54 44 14 358
305 246 129 64 16 264 228 187 209 219 241 227 239 222 248 274 274 268 253 283 339 331 316 301 51 259 138 222 223 213 294 291 291 299 320 327 351 330 339 336 310 303 114 114 77 68 62 43 60 52 56 31 43 10
242 264 195 256 356 309 106 185 227 239 242 233 242 236 209 221 254 266 278 297 16 327 311 333 296 253 265 343 262 192 236 265 269 283 354 357 334 326 347 345 332 165 96 63 55 55 45 46 51 10 5 17 84 46
285 299 296 295 279 300 270 202 209 259 245 241 241 239 239 250 238 252 261 256 240 212 291 279 260 255 67 260 303 313 303 340 324 333 42 339 340 352 341 346 11 82 65 47 31 45 24 27 55 14 9 42 77 45
275 268 262 250 189 243 249 225 183 250 270 281 268 259 244 246 281 245 245 230 222 240 227 228 228 313 354 302 310 309 1 330 355 357 359 353 355 352 343 343 322 90 71 31 20 350 12 12 32 37 40 47 65 58
295 271 281 142 184 217 280 284 241 227 261 254 287 272 273 251 255 259 261 172 215 232 247 241 193 259 311 322 313 354 352 3 41 353 340 338 333 338 330 291 222 101 95 55 27 335 18 5 10 19 23 39 45 56
275 339 267 198 238 199 248 224 252 284 263 267 275 241 274 269 254 223 145 235 244 242 225 239 267 314 306 303 295 313 304 259 278 212 299 279 275 266 249 73 69 73 94 124 176 90 73 360 9 35 37 356 43 46
303 195 245 218 222 227 261 198 248 227 263 263 254 247 238 257 4 47 273 247 265 243 233 245 248 239 264 283 288 284 267 255 274 340 313 307 315 326 324 36 71 97 81 33 66 64 48 26 32 39 23 15 63 79
226 253 259 230 197 263 256 234 228 259 267 252 245 264 265 183 161 244 263 249 240 262 269 272 270 276 269 236 268 271 275 215 211 224 292 318 317 314 319 337 17 69 99 113 89 78 50 41 28 36 45 39 33 60
293 268 171 268 249 248 255 266 245 240 250 229 255 223 56 168 300 308 277 285 297 288 283 285 279 258 244 227 252 273 284 218 205 203 254 249 251 282 347 26 26 9 25 71 49 52 46 45 48 46 39 48 56 45
260 228 191 293 319 252 317 292 297 329 299 303 13 307 133 24 359 315 296 281 296 291 307 308 285 271 246 224 240 274 276 270 219 231 298 281 240 165 124 81 62 9 8 57 95 91 64 49 49 48 39 30 57 81
281 263 233 234 261 260 278 262 249 275 308 290 312 31 46 341 294 262 271 252 251 308 314 307 281 260 242 277 262 274 289 312 348 267 132 63 54 56 82 107 98 275 354 57 67 82 93 84 83 80 68 47 39 69
259 250 243 322 279 233 285 294 270 286 321 337 18 3 343 285 273 241 234 280 279 329 334 318 303 289 186 226 234 258 311 357 94 86 72 50 37 39 44 68 78 79 77 75 82 75 85 91 84 79 77 78 61 54
245 233 145 272 235 250 230 244 294 332 289 7 2 319 290 257 247 255 274 239 36 3 339 352 355 2 43 48 43 34 26 40 111 86 82 73 31 358 1 30 67 72 65 68 50 75 79 78 76 77 76 75 73 70
219 143 229 255 334 25 320 291 287 290 297 268 237 331 337 308 276 307 28 46 27 340 302 327 63 39 43 41 31 39 28 23 53 124 135 141 156 302 26 40 62 71 72 84 87 81 68 86 78 69 90 79 69 67
148 193 186 219 69 265 265 265 257 266 299 335 356 316 290 308 308 15 64 338 99 9 38 48 55 44 78 74 59 50 51 17 29 55 78 115 108 89 74 64 73 77 102 127 147 192 192 189 128 102 97 96 90 76
316 62 94 24 75 298 322 345 318 328 5 26 350 327 350 15 355 332 305 83 70 48 28 58 66 57 47 58 58 73 82 83 54 52 55 60 55 57 64 58 62 71 87 87 88 85 78 87 90 93 87 91 98 103
298 117 98 137 54 349 320 337 15 355 10 20 2 255 329 289 317 298 328 112 128 133 120 101 97 88 76 77 93 95 76 76 94 89 90 91 90 78 49 23 9 11 18 83 89 80 71 112 115 132 145 142 137 133